MIDAS 5 DEB, 274

Orbit data source: Space-Track

MIDAS 5 DEB, 274 is space debris in LEO originally from a launch on Mon, 09 Apr 1962 UTC launched from the Air Force Western Test Range (AFWTR). Debris objects in space refer to the collection of defunct objects orbiting the Earth. Examples of debris include non-operational satellites, rocket bodies, and fragments generated from explosions, collisions, or faulty payload assembly.

Loading next visibility...
Identifier
274, 1962-010D
Orbit
LEO
Country
Flag of USUS
Related business
Manufacturer
Unknown
Mission
Spacecraft
Bus & Motor
Unknown
Mass
~10 kg wet, ~10 kg dry
Launch date (UTC)
1962-04-09 (64 years ago)
Launch vehicle
Unknown
Launch site
Air Force Western Test Range (AFWTR)
Object type
Payload
Rocket body
Debris
Shape & HBR
Unknown shape, 0.5 m
Radar Cross Section
Medium (>0.1 m² and <1 m²)

Expand to show TLE details & history
Last TLE update: 9 hours ago

TLE from 9 hours ago
0 MIDAS 5 DEB
1 00274U 62010D   26101.06367324 -.00000054  00000-0 -11526-1 0  9990
2 00274  86.6761 343.3516 0346566 251.5181 104.7765  9.39368694194480
Epoch: 2026-04-11T01:31Z
TLE epoch observation values (Epoch: 2026-04-11T01:31:41.367Z)
Latitude
-0.0001°
Longitude
121.14088°
Altitude
3,206.62 km
Speed
6.417 km/s
True Right ascension
22h 53m 24s
True Declination
0° 00' 00"
Sunlit
Object was in daylight at epoch
Visualization orbit readout
Latitude
Unknown
Longitude
Unknown
Altitude
Unknown
Speed
Unknown
Apparent Right ascension
Unknown
Apparent Declination
Unknown
Sunlit
N/A
Visualization observer readout
Local Sidereal Time
17:10:26
Azimuth
Unknown
Elevation
Unknown
Doppler factor
Unknown
Orbital elements
Apogee altitude
3,436.38 km
Perigee altitude
2,778.891 km
Semi-major axis
9,485.773 km
Eccentricity
0.03466
Inclination
86.6761°
RAAN
343.3516°
Arg. of periapsis
251.5181°
True anomaly
108.57176°
Mean anomaly
104.7765°
Eccentric anomaly
106.67864°
Mean motion
2.34928 °/min
Orbital period
153.24 mins
BSTAR
-0.011526
Loading maneuver chart data...
Computing Atmospheric mass density...
Loading historical data...
Loading historical data...
Loading historical data...
Loading historical data...
Loading historical data...
Loading historical data...
Loading historical data...

Documentation

Showing up to 5 results
|